Location: Newark
(27.9675°N, 86.8869°E)
Time: 14:09:24
(UTC+00:00)

SR - Visible Passes

Search period start: 18 October 2019 00:00
Search period end: 28 October 2019 00:00
Orbit: 575 x 881 km, 66.7° (Epoch: 17 October)

Date Brightness Start Highest point End Pass type
(mag) Time Alt. Az. Time Alt. Az. Time Alt. Az.
22 Oct ? 23:46:24 10° NNE 23:49:50 16° NE 23:53:14 10° E visible
24 Oct ? 23:47:51 10° N 23:52:57 29° ENE 23:57:55 10° ESE visible
25 Oct ? 22:59:42 10° NNE 23:02:54 15° NE 23:06:03 10° E visible
26 Oct ? 23:50:04 10° NNW 23:55:53 55° ENE 00:01:29 10° SE visible
27 Oct ? 14:13:03 10° SW 14:13:09 11° SW 14:13:09 11° SW visible
27 Oct ? 23:01:03 10° N 23:06:01 27° ENE 23:10:52 10° ESE visible
